Flag for Germany Weather past 2 weeks in Bochum, North Rhine-Westphalia, Germany

Now
50 °F

Passing clouds.


Feels Like: 50 °F
Forecast: 46 / 68 °F
Wind: 1 mph from Northeast

Location: Duesseldorf


UV Index: 0 (Low)

Visibility: 25 mi


Pressure: 29.72 "Hg

Humidity: 74%

Dew point: 42 °F

Location of BochumLocation

Historic Weather in Bochum

°F

Bochum temperature yesterday

Maximum temperature yesterday: 72 °F (at 2:00 PM)
Minimum temperature yesterday: 53 °F (at 7:00 AM)
Average temperature yesterday: 61 °F

Past Weeks' High & Low Weather Summary

 TemperatureHumidityPressure
High72 °F (Apr 20, 2:00 PM)97% (Apr 12, 8:00 AM)30.47 "Hg (Apr 12, 8:00 AM)
Low30 °F (Apr 16, 5:00 AM)26% (Apr 17, 5:00 PM)29.67 "Hg (Apr 20, 6:00 PM)
Average52 °F66%30.09 "Hg
* Reported Apr 6 2:00 AM — Apr 21 2:00 AM, Bochum, Weather by CustomWeather, © 2014

Note: Actual official high and low records may vary slightly from our data, if they occured in-between our weather recording intervals... More about our weather records

Advertising

Historic Weather Conditions — Data for Previous 24 hours

 ConditionsComfort  
Time TempWeatherWind HumidityBarometerVisibility
2:00 AM
Apr 21
51 °FPassing clouds.3 mph70%29.74 "Hg22 mi
1:00 AM54 °FClear.5 mph62%29.74 "Hg25 mi
12:00 AM54 °FClear.3 mph64%29.74 "Hg25 mi
11:00 PM
Apr 20
55 °FPassing clouds.2 mph59%29.73 "Hg25 mi
10:00 PM57 °FPassing clouds.3 mph53%29.72 "Hg28 mi
9:00 PM60 °FPassing clouds.3 mph48%29.71 "Hg28 mi
8:00 PM64 °FPassing clouds.3 mph42%29.69 "Hg28 mi
7:00 PM69 °FPassing clouds.7 mph32%29.67 "Hg28 mi
6:00 PM69 °FScattered clouds.3 mph32%29.67 "Hg28 mi
4:00 PM72 °FScattered clouds.6 mph31%29.68 "Hg28 mi
3:00 PM69 °FScattered clouds.7 mph37%29.69 "Hg25 mi
2:00 PM72 °FScattered clouds.8 mph35%29.70 "Hg19 mi
1:00 PM69 °FPassing clouds.8 mph47%29.72 "Hg14 mi
12:00 PM66 °FPassing clouds.8 mph52%29.74 "Hg14 mi
11:00 AM63 °FPassing clouds.7 mph59%29.76 "Hg12 mi
10:00 AM59 °FPassing clouds.6 mph68%29.78 "Hg10 mi
9:00 AM58 °FPartly sunny.6 mph72%29.79 "Hg9 mi
8:00 AM54 °FOvercast.3 mph80%29.79 "Hg9 mi
7:00 AM53 °FOvercast.3 mph81%29.80 "Hg9 mi
6:00 AM53 °FOvercast.3 mph81%29.80 "Hg9 mi
4:00 AM53 °FClear.7 mph80%29.83 "Hg11 mi
3:00 AM53 °FPassing clouds.8 mph78%29.84 "Hg12 mi
Weather by CustomWeather, © 2014

See weather overview